[[{"header":{"parameterUnit":"m.s-1","parameterCategory":2,"la1":30.2992,"la2":30.254,"lo1":-89.0895,"lo2":-89.0443,"dy":0.0025,"dx":0.0025,"nx":19,"ny":19,"refTime":"2026-05-02T03:00:00:Z","depth":"0","parameterNumber":2,"parameterNumberName":"U-component_of_CURRENTS"},"data":[0,0,0,0.1838,0.184,0.1928,0.1928,0.1998,0.1999,0,0,0,0,0,0,0,0,0,0,0,0.18,0.1801,0.1838,0.184,0.1928,0.1928,0.1998,0.1999,0,0,0,0,0,0,0,0,0,0,0,0.18,0.1801,0.1802,0.1841,0.1927,0.1928,0.1998,0.1941,0,0,0,0,0,0,0,0,0,0,0.186,0.1829,0.1801,0.1802,0.1841,0.1927,0.1928,0.1938,0.1944,0.195,0,0.1967,0,0.1992,0.2004,0.2004,0,0,0,0.1832,0.1824,0.1856,0.1802,0.1842,0.1927,0.1886,0.1942,0.1948,0.1958,0.1968,0.1972,0.1993,0.2004,0.2004,0.211,0.2111,0,0,0.1827,0.1808,0.1851,0.186,0.187,0.1883,0.1889,0.1946,0.1949,0.1969,0.1974,0.1994,0.2004,0.2005,0.2109,0.211,0,0,0,0.1819,0.1804,0.1835,0.1857,0.188,0.1886,0.1892,0.1947,0.1959,0.1975,0.1995,0.2005,0.2006,0.2109,0.211,0.217,0,0,0,0.1816,0.18,0.1833,0.1821,0.1879,0.192,0.1891,0.1955,0.1963,0.1995,0.2005,0.2006,0.2108,0.2109,0.2167,0.2192,0,0,0,0.1795,0.1798,0.1811,0.1819,0.1863,0.192,0.1935,0.1957,0.1975,0.2004,0.2007,0.2107,0.2109,0.2164,0.2187,0.2272,0,0,0,0.1767,0.1795,0.1811,0.1853,0.1862,0.1941,0.1935,0.1985,0.2012,0.2005,0.2108,0.211,0.2164,0.2184,0.2268,0.2339,0.2362,0,0,0.1788,0.1797,0.1825,0.1842,0.1917,0.1928,0.2012,0.2038,0.2038,0.2083,0.2086,0.2168,0.2187,0.2271,0.2427,0.2448,0,0,0,0.1823,0.1842,0.1869,0.1916,0.197,0.2034,0.2064,0.2087,0.214,0.2064,0.2183,0.2192,0.2244,0.2279,0.2295,0.242,0.2117,0.2116,0.2116,0.1811,0.1857,0.191,0.1976,0.2028,0.211,0.2164,0.2203,0.219,0.2227,0.2253,0.2371,0.2409,0.2422,0.255,0.2266,0.2266,0.2267,0.2267,0.1845,0.1876,0.1941,0.2007,0.2084,0.2155,0.2262,0.2282,0.2381,0.2331,0.2379,0.2354,0.2444,0.2574,0.2271,0.227,0.227,0.2269,0.2269,0.1833,0.1854,0.1901,0.1993,0.2085,0.2181,0.2307,0.2379,0.2433,0.2488,0.2549,0.2549,0.2655,0.2525,0.2526,0.2526,0.2527,0.2527,0.2527,0.179,0.1842,0.1883,0.1979,0.2036,0.2158,0.2336,0.2443,0.2594,0.263,0.2631,0.2726,0.2451,0.2432,0.2535,0.2533,0.2532,0.2532,0.2531,0.1769,0.1785,0.185,0.19,0.2037,0.2139,0.2325,0.2591,0.2719,0.2814,0.2959,0.2718,0.2712,0.2699,0.2686,0.2849,0.2849,0.2849,0.2849,0.1734,0.1752,0.182,0.1889,0.2,0.2131,0.2341,0.2603,0.2946,0.3106,0.3161,0.3129,0.311,0.3124,0.3101,0.3095,0.3359,0.3359,0.336,0.1712,0.1745,0.1774,0.1855,0.1971,0.2118,0.2286,0.2586,0.3121,0.3391,0.333,0.3309,0.3263,0.3224,0.3238,0.3196,0.3181,0,0]},{"header":{"parameterUnit":"m.s-1","parameterCategory":2,"la1":30.2992,"la2":30.254,"lo1":-89.0895,"lo2":-89.0443,"dy":0.0025,"dx":0.0025,"nx":19,"ny":19,"refTime":"2026-05-02T03:00:00:Z","depth":"0","parameterNumber":3,"parameterNumberName":"V-component_of_CURRENTS"},"data":[0,0,0,-0.0494,-0.0495,-0.0544,-0.0545,-0.063,-0.063,0,0,0,0,0,0,0,0,0,0,0,-0.0478,-0.0478,-0.0494,-0.0495,-0.0544,-0.0545,-0.0629,-0.063,0,0,0,0,0,0,0,0,0,0,0,-0.0478,-0.0478,-0.0478,-0.0495,-0.0544,-0.0545,-0.0629,-0.059,0,0,0,0,0,0,0,0,0,0,-0.0541,-0.0516,-0.0478,-0.0478,-0.0495,-0.0544,-0.0545,-0.0588,-0.0592,-0.0609,0,-0.0608,0,-0.0615,-0.0635,-0.0635,0,0,0,-0.0509,-0.0513,-0.0524,-0.0478,-0.0496,-0.0544,-0.0526,-0.059,-0.0595,-0.0615,-0.0609,-0.0612,-0.0617,-0.0636,-0.0636,-0.0667,-0.0667,0,0,-0.0506,-0.0493,-0.052,-0.0527,-0.0497,-0.0524,-0.0527,-0.0593,-0.0595,-0.0609,-0.0614,-0.0618,-0.0636,-0.0637,-0.0668,-0.0667,0,0,0,-0.0489,-0.049,-0.05,-0.0523,-0.0527,-0.0525,-0.0529,-0.0593,-0.0595,-0.0615,-0.0619,-0.0637,-0.0637,-0.0668,-0.0668,-0.0578,0,0,0,-0.0488,-0.048,-0.0499,-0.0492,-0.0525,-0.0557,-0.0526,-0.059,-0.0598,-0.0619,-0.0637,-0.0638,-0.0668,-0.0668,-0.0581,-0.052,0,0,0,-0.0477,-0.0479,-0.048,-0.0491,-0.0506,-0.0556,-0.0563,-0.0592,-0.06,-0.0636,-0.0638,-0.0668,-0.0668,-0.0583,-0.0525,-0.0492,0,0,0,-0.0469,-0.0443,-0.048,-0.0454,-0.0505,-0.0507,-0.0563,-0.0577,-0.0601,-0.0637,-0.0668,-0.0668,-0.0584,-0.0529,-0.0495,-0.0385,-0.0361,0,0,-0.0426,-0.0438,-0.0421,-0.0454,-0.0427,-0.0502,-0.0488,-0.0546,-0.0602,-0.0651,-0.0652,-0.058,-0.0526,-0.0493,-0.0357,-0.0333,0,0,0,-0.04,-0.0385,-0.0384,-0.038,-0.0403,-0.0417,-0.0485,-0.0519,-0.0564,-0.0612,-0.0595,-0.0564,-0.0546,-0.0487,-0.0468,-0.0628,-0.0665,-0.0665,-0.0665,-0.0322,-0.0331,-0.0295,-0.0307,-0.0314,-0.0366,-0.0384,-0.0446,-0.0514,-0.0522,-0.0503,-0.0429,-0.0366,-0.0351,-0.0517,-0.0529,-0.0529,-0.0528,-0.0528,-0.0239,-0.021,-0.0224,-0.0195,-0.0221,-0.0224,-0.0289,-0.0338,-0.037,-0.0438,-0.0426,-0.0409,-0.0324,-0.051,-0.0523,-0.0524,-0.0524,-0.0525,-0.0525,-0.0181,-0.0165,-0.0156,-0.0114,-0.0092,-0.0133,-0.0089,-0.0172,-0.0272,-0.0258,-0.0227,-0.0228,-0.038,-0.0265,-0.0264,-0.0264,-0.0264,-0.0263,-0.0263,-0.0124,-0.011,-0.0059,-0.0028,0.001,0.0052,0.0025,0.0025,-0.0028,-0.0105,-0.0106,-0.0366,-0.0349,-0.0348,-0.0256,-0.0258,-0.0258,-0.0259,-0.026,-0.0038,-0.0044,0.0045,0.009,0.0191,0.0318,0.0272,0.0305,0.0249,0.0248,-0.0131,-0.0038,-0.0056,-0.0071,-0.0064,0.0096,0.0096,0.0096,0.0096,0.0019,0.0021,0.0152,0.025,0.0373,0.0447,0.0642,0.0617,0.0302,0.0099,-0.0079,-0.0143,-0.015,-0.0181,-0.0194,-0.0193,-0.007,-0.0071,-0.0072,0.0086,0.0115,0.0228,0.0315,0.0456,0.0628,0.0846,0.0901,0.0355,-0.0104,-0.0326,-0.0319,-0.0445,-0.0444,-0.0522,-0.0527,-0.0537,0,0]}],[{"header":{"parameterUnit":"m.s-1","parameterCategory":2,"la1":30.2992,"la2":30.254,"lo1":-89.0895,"lo2":-89.0443,"dy":0.0025,"dx":0.0025,"nx":19,"ny":19,"refTime":"2026-05-02T03:00:00:Z","depth":"2","parameterNumber":2,"parameterNumberName":"U-component_of_CURRENTS"},"data":[0,0,0,0.1817,0.1819,0.1906,0.1907,0.1977,0.1978,0,0,0,0,0,0,0,0,0,0,0,0.1779,0.178,0.1817,0.1819,0.1906,0.1907,0.1977,0.1978,0,0,0,0,0,0,0,0,0,0,0,0.1779,0.178,0.1781,0.182,0.1906,0.1907,0.1977,0.1919,0,0,0,0,0,0,0,0,0,0,0.1839,0.1809,0.178,0.1781,0.182,0.1906,0.1907,0.1917,0.1923,0.1929,0,0.1946,0,0.197,0.1982,0.1983,0,0,0,0.1811,0.1804,0.1835,0.1781,0.1821,0.1906,0.1865,0.1921,0.1927,0.1936,0.1947,0.195,0.1971,0.1983,0.1983,0.2089,0.2089,0,0,0.1807,0.1787,0.183,0.1839,0.1849,0.1862,0.1868,0.1925,0.1928,0.1947,0.1952,0.1973,0.1983,0.1984,0.2088,0.2089,0,0,0,0.1798,0.1784,0.1814,0.1836,0.1859,0.1865,0.1871,0.1926,0.1938,0.1953,0.1973,0.1984,0.1984,0.2087,0.2088,0.215,0,0,0,0.1795,0.178,0.1812,0.18,0.1858,0.1899,0.187,0.1934,0.1942,0.1973,0.1984,0.1985,0.2087,0.2088,0.2146,0.217,0,0,0,0.1775,0.1777,0.1791,0.1799,0.1842,0.1899,0.1914,0.1936,0.1954,0.1983,0.1985,0.2086,0.2088,0.2144,0.2166,0.225,0,0,0,0.1747,0.1774,0.179,0.1831,0.1842,0.1919,0.1914,0.1964,0.1991,0.1984,0.2087,0.2088,0.2143,0.2163,0.2246,0.229,0.2311,0,0,0.1767,0.1776,0.1803,0.182,0.1895,0.1906,0.199,0.2016,0.2017,0.2062,0.2065,0.2147,0.2165,0.2249,0.2379,0.2398,0,0,0,0.1801,0.182,0.1846,0.1893,0.1947,0.2012,0.2042,0.2066,0.2119,0.2043,0.2162,0.2171,0.2222,0.2241,0.2256,0.2096,0.2095,0.2095,0.2095,0.1789,0.1834,0.1887,0.1952,0.2005,0.2086,0.2141,0.2181,0.2169,0.2207,0.2232,0.235,0.2371,0.2383,0.2245,0.2246,0.2246,0.2246,0.2246,0.1822,0.1853,0.1918,0.1983,0.206,0.2131,0.2239,0.226,0.2359,0.231,0.2358,0.2317,0.2403,0.2251,0.225,0.225,0.2249,0.2249,0.2249,0.1811,0.1832,0.1878,0.197,0.2062,0.2158,0.2283,0.2357,0.2411,0.2467,0.251,0.2509,0.2395,0.2504,0.2504,0.2505,0.2505,0.2506,0.2506,0.1768,0.182,0.1861,0.1956,0.2013,0.2135,0.2313,0.2418,0.2558,0.2589,0.2589,0.2438,0.2429,0.2411,0.2514,0.2512,0.2511,0.2511,0.251,0.1748,0.1764,0.1828,0.1878,0.2014,0.2093,0.2294,0.2544,0.2672,0.2756,0.2671,0.2665,0.2656,0.2643,0.263,0.2784,0.2784,0.2784,0.2784,0.1713,0.1731,0.1798,0.1866,0.1975,0.2077,0.2226,0.2392,0.2601,0.264,0.2644,0.2565,0.2559,0.2537,0.2527,0.2508,0.263,0.2629,0.2629,0.1691,0.1724,0.1753,0.1832,0.1944,0.2042,0.2087,0.2114,0.2344,0.261,0.2486,0.2799,0.2694,0.268,0.2652,0.2634,0.2605,0,0]},{"header":{"parameterUnit":"m.s-1","parameterCategory":2,"la1":30.2992,"la2":30.254,"lo1":-89.0895,"lo2":-89.0443,"dy":0.0025,"dx":0.0025,"nx":19,"ny":19,"refTime":"2026-05-02T03:00:00:Z","depth":"2","parameterNumber":3,"parameterNumberName":"V-component_of_CURRENTS"},"data":[0,0,0,-0.0402,-0.0403,-0.0453,-0.0453,-0.0534,-0.0535,0,0,0,0,0,0,0,0,0,0,0,-0.0385,-0.0385,-0.0402,-0.0403,-0.0453,-0.0453,-0.0534,-0.0535,0,0,0,0,0,0,0,0,0,0,0,-0.0385,-0.0385,-0.0385,-0.0403,-0.0453,-0.0453,-0.0534,-0.0495,0,0,0,0,0,0,0,0,0,0,-0.0446,-0.0423,-0.0385,-0.0385,-0.0403,-0.0453,-0.0453,-0.0493,-0.0498,-0.0512,0,-0.0511,0,-0.0519,-0.054,-0.054,0,0,0,-0.0416,-0.0419,-0.043,-0.0385,-0.0403,-0.0453,-0.0434,-0.0496,-0.0501,-0.0518,-0.0512,-0.0515,-0.052,-0.054,-0.054,-0.0568,-0.0568,0,0,-0.0414,-0.0401,-0.0426,-0.0432,-0.0405,-0.0432,-0.0436,-0.0499,-0.0501,-0.0512,-0.0517,-0.0522,-0.054,-0.0541,-0.0569,-0.0568,0,0,0,-0.0397,-0.0399,-0.0408,-0.0429,-0.0434,-0.0434,-0.0437,-0.0499,-0.05,-0.0518,-0.0523,-0.0541,-0.0542,-0.0569,-0.0569,-0.0482,0,0,0,-0.0396,-0.0388,-0.0407,-0.0401,-0.0432,-0.0464,-0.0435,-0.0496,-0.0503,-0.0522,-0.0541,-0.0542,-0.0569,-0.0569,-0.0484,-0.0424,0,0,0,-0.0385,-0.0387,-0.0389,-0.04,-0.0415,-0.0463,-0.047,-0.0498,-0.0506,-0.054,-0.0543,-0.0569,-0.0569,-0.0487,-0.043,-0.0397,0,0,0,-0.0377,-0.0351,-0.0388,-0.0361,-0.0414,-0.0413,-0.0469,-0.0484,-0.0506,-0.0541,-0.0569,-0.0569,-0.0488,-0.0433,-0.0401,-0.0289,-0.0266,0,0,-0.0334,-0.0346,-0.0328,-0.0362,-0.0333,-0.0408,-0.0393,-0.0452,-0.0507,-0.0553,-0.0553,-0.0483,-0.043,-0.0398,-0.0262,-0.0239,0,0,0,-0.0308,-0.0292,-0.029,-0.0286,-0.0308,-0.0322,-0.039,-0.0423,-0.0469,-0.0516,-0.0498,-0.0467,-0.045,-0.039,-0.0372,-0.0566,-0.0566,-0.0566,-0.0566,-0.0231,-0.0239,-0.0201,-0.0212,-0.0218,-0.027,-0.0287,-0.0349,-0.0417,-0.0427,-0.0408,-0.0337,-0.0273,-0.0258,-0.0435,-0.0434,-0.0434,-0.0434,-0.0433,-0.0149,-0.0119,-0.0131,-0.01,-0.0126,-0.0129,-0.0193,-0.0243,-0.0276,-0.0344,-0.0332,-0.0315,-0.0232,-0.0427,-0.0428,-0.0429,-0.043,-0.043,-0.0431,-0.0093,-0.0076,-0.0067,-0.0023,-0.0001,-0.0041,0.0003,-0.008,-0.018,-0.0168,-0.0137,-0.0138,-0.0271,-0.0176,-0.0176,-0.0175,-0.0175,-0.0175,-0.0174,-0.0039,-0.0024,0.0026,0.0059,0.0097,0.0139,0.0114,0.0113,0.006,-0.0018,-0.0018,-0.025,-0.0258,-0.0257,-0.0168,-0.0169,-0.017,-0.0171,-0.0171,0.0045,0.0038,0.0127,0.0172,0.0274,0.041,0.0359,0.0391,0.0333,0.0331,0.0057,0.0049,0.0032,0.0017,0.0024,0.0181,0.0181,0.0181,0.0181,0.01,0.0101,0.0231,0.0329,0.0454,0.054,0.0737,0.0705,0.0514,0.037,0.0362,0.0332,0.0314,0.0309,0.0287,0.0297,0.0525,0.0526,0.0526,0.0164,0.0194,0.0305,0.0393,0.0537,0.0726,0.0954,0.0956,0.0667,0.0536,0.0381,0.0212,0.0142,0.0125,0.0089,0.0065,0.007,0,0]}],[{"header":{"parameterUnit":"m.s-1","parameterCategory":2,"la1":30.2992,"la2":30.254,"lo1":-89.0895,"lo2":-89.0443,"dy":0.0025,"dx":0.0025,"nx":19,"ny":19,"refTime":"2026-05-02T03:00:00:Z","depth":"4","parameterNumber":2,"parameterNumberName":"U-component_of_CURRENTS"},"data":[0,0,0,0.1161,0.1164,0.1317,0.1318,0.1458,0.1459,0,0,0,0,0,0,0,0,0,0,0,0.1103,0.1103,0.1161,0.1165,0.1317,0.1318,0.1458,0.1459,0,0,0,0,0,0,0,0,0,0,0,0.1102,0.1103,0.1104,0.1165,0.1317,0.1318,0.1457,0.1356,0,0,0,0,0,0,0,0,0,0,0.1215,0.1175,0.1103,0.1104,0.1166,0.1317,0.1318,0.1352,0.1363,0.1372,0,0.1395,0,0.1432,0.1467,0.1467,0,0,0,0.1167,0.1167,0.1202,0.1105,0.1168,0.1317,0.1249,0.1358,0.137,0.1385,0.1398,0.1404,0.1434,0.1467,0.1468,0.1605,0.1606,0,0,0.1158,0.1137,0.1194,0.1209,0.1207,0.1244,0.1254,0.1366,0.138,0.1398,0.1408,0.1436,0.1468,0.1469,0.1605,0.1606,0,0,0,0.1133,0.1131,0.1165,0.1202,0.1236,0.1249,0.126,0.1376,0.1385,0.1409,0.1438,0.1469,0.147,0.1604,0.1605,0.1665,0,0,0,0.1128,0.1117,0.1161,0.1151,0.1234,0.1318,0.1266,0.1377,0.1392,0.1437,0.1469,0.1472,0.1603,0.1605,0.1661,0.1669,0,0,0,0.1096,0.1114,0.1129,0.115,0.1215,0.1317,0.1334,0.1382,0.1409,0.1467,0.1472,0.1603,0.1604,0.1659,0.1665,0.1712,0,0,0,0.1071,0.1096,0.1129,0.1172,0.1214,0.1308,0.1334,0.1424,0.1478,0.147,0.1603,0.1605,0.1658,0.1663,0.1709,0.1519,0,0,0,0.1084,0.1098,0.1123,0.1156,0.1232,0.1287,0.1385,0.1471,0.1501,0.1561,0.1565,0.1662,0.1665,0.1711,0.1608,0,0,0,0,0.1115,0.1134,0.1162,0.122,0.1289,0.1377,0.1463,0.1512,0.1615,0.154,0.1676,0.1675,0.1703,0.1585,0.1612,0.1612,0.1612,0.1612,0.1611,0.1099,0.1144,0.1194,0.1265,0.1331,0.1454,0.1531,0.1615,0.1644,0.171,0.1735,0.1822,0.1701,0.1756,0.1756,0.1757,0.1757,0.1757,0.1757,0.1111,0.1133,0.1215,0.1286,0.1383,0.1486,0.1623,0.1683,0.1807,0.1804,0.1829,0.1668,0.1763,0.1762,0.1761,0.1761,0.176,0.176,0.1759,0.1079,0.1095,0.1163,0.127,0.1395,0.1526,0.1647,0.1767,0.1852,0.19,0.1791,0.1864,0.1846,0.1935,0.1935,0.1936,0.1936,0.1936,0.1936,0.1008,0.1071,0.1133,0.1258,0.1341,0.1485,0.1691,0.1774,0.1884,0.1829,0.1931,0.1882,0.1876,0.1857,0.194,0.194,0.1939,0.1939,0.1938,0.0956,0.0995,0.1068,0.1144,0.1309,0.1393,0.1601,0.1727,0.1797,0.1798,0.1787,0.1793,0.1751,0.1749,0.1723,0.177,0.1768,0.1766,0,0.0904,0.0934,0.1016,0.1095,0.1182,0.1328,0.14,0.1531,0.1639,0.1578,0.1778,0.176,0.1764,0.171,0.1705,0.1669,0,0,0,0.0874,0.0909,0.0944,0.1037,0.112,0.1248,0.1414,0.1427,0.1606,0.1653,0.1712,0.1726,0.1869,0.1953,0.1903,0.1896,0.1862,0,0]},{"header":{"parameterUnit":"m.s-1","parameterCategory":2,"la1":30.2992,"la2":30.254,"lo1":-89.0895,"lo2":-89.0443,"dy":0.0025,"dx":0.0025,"nx":19,"ny":19,"refTime":"2026-05-02T03:00:00:Z","depth":"4","parameterNumber":3,"parameterNumberName":"V-component_of_CURRENTS"},"data":[0,0,0,0.0193,0.0192,0.0134,0.0134,0.0065,0.0064,0,0,0,0,0,0,0,0,0,0,0,0.022,0.022,0.0193,0.0192,0.0134,0.0134,0.0065,0.0064,0,0,0,0,0,0,0,0,0,0,0,0.022,0.022,0.022,0.0192,0.0134,0.0134,0.0065,0.0107,0,0,0,0,0,0,0,0,0,0,0.0162,0.0184,0.022,0.022,0.0192,0.0134,0.0134,0.0109,0.0104,0.0094,0,0.0091,0,0.0075,0.006,0.006,0,0,0,0.0189,0.0188,0.0175,0.022,0.0191,0.0134,0.0159,0.0106,0.0101,0.0088,0.009,0.0087,0.0073,0.006,0.0059,0.0038,0.0038,0,0,0.0192,0.0204,0.0179,0.0172,0.0184,0.0161,0.0157,0.0103,0.0099,0.009,0.0085,0.0072,0.0059,0.0059,0.0038,0.0038,0,0,0,0.0203,0.0206,0.0195,0.0175,0.0163,0.0159,0.0155,0.0102,0.0099,0.0085,0.0072,0.0059,0.0058,0.0037,0.0038,0.0104,0,0,0,0.0205,0.0213,0.0196,0.0202,0.0165,0.013,0.0156,0.0103,0.0096,0.0072,0.0059,0.0058,0.0037,0.0038,0.0102,0.0144,0,0,0,0.0221,0.0214,0.0211,0.0203,0.0179,0.013,0.0124,0.0101,0.0088,0.006,0.0057,0.0037,0.0038,0.01,0.0139,0.0147,0,0,0,0.023,0.0243,0.0212,0.0223,0.0179,0.0179,0.0124,0.0106,0.0087,0.0059,0.0037,0.0038,0.0099,0.0137,0.0144,0.0171,0,0,0,0.0256,0.0246,0.0255,0.0226,0.0245,0.0186,0.0199,0.0142,0.0091,0.0054,0.0053,0.0103,0.0139,0.0146,0.0202,0,0,0,0,0.027,0.028,0.028,0.028,0.0264,0.0256,0.0197,0.0167,0.012,0.0081,0.0095,0.0116,0.0118,0.0126,0.004,0.004,0.004,0.004,0.004,0.032,0.0317,0.0344,0.0341,0.0339,0.0299,0.0283,0.0229,0.0171,0.0155,0.0164,0.0209,0.0221,0.0149,0.0149,0.015,0.015,0.015,0.015,0.0377,0.0399,0.0399,0.0424,0.0413,0.0414,0.036,0.0312,0.027,0.0218,0.0216,0.019,0.0157,0.0155,0.0155,0.0154,0.0153,0.0153,0.0153,0.0417,0.043,0.0443,0.0484,0.0507,0.048,0.0497,0.0432,0.0336,0.0336,0.0307,0.0249,0.0249,0.0318,0.0318,0.0318,0.0319,0.0319,0.0319,0.0452,0.0469,0.051,0.0546,0.0576,0.0602,0.057,0.0538,0.0446,0.0394,0.0346,0.0265,0.026,0.0257,0.0322,0.0322,0.0321,0.0321,0.0321,0.05,0.0506,0.0572,0.061,0.0687,0.0706,0.0687,0.0607,0.0571,0.0503,0.041,0.0405,0.0379,0.0371,0.0371,0.0472,0.0473,0.0474,0,0.0531,0.0539,0.0627,0.0702,0.077,0.0775,0.0752,0.0699,0.0571,0.0564,0.055,0.0449,0.0443,0.0417,0.041,0.0413,0,0,0,0.0565,0.0588,0.0655,0.0729,0.0805,0.078,0.0747,0.0709,0.0599,0.0557,0.0488,0.0485,0.0426,0.0333,0.0281,0.0274,0.0266,0,0]}]]